Tracking 18980 objects as of 22-Feb-2018
HD Live streaming from Space Station
objects crossing your sky now

FENGYUN 1C DEB

Track FENGYUN 1C DEB now!
10-day predictions


NORAD ID: 36166
Int'l Code: 1999-025DSP
Perigee: 783.9 km
Apogee: 1,326.4 km
Inclination: 97.6 °
Period: 106.1 minutes
Semi major axis: 7426 km
RCS: 0.015 m2 (small)
Launch date: May 10, 1999
Source: People's Republic of China (PRC)
Launch site: Taiyaun Space Center, China (TSC)

Note: This is SATELLITE DEBRIS
aabbcc
Your satellite tracking list
Your tracking list is empty




NASA's NSSDC Master Catalog

Two Line Element Set (TLE):
1 36166U 99025DSP 18043.34264922  .00000444  00000-0  43231-3 0  9993
2 36166  97.5552 226.8006 0365226 134.3738 228.7944 13.56619297502714
Source of the keplerian elements: AFSPC